FENGYUN 4C

Last updated on Mon Jun 22 2026 00:03:08 GMT+0000 (Coordinated Universal Time)

1 67246U 25312A 26172.20183742 -.00000325 00000+0 00000+0 0 9992 2 67246 0.0446 152.2345 0000316 41.1577 281.6598 1.00270515 1829
UTC large
Height (km)
Speed (km/s)
/
Latitude / Longitude
Inclination (degrees)
Orbital Period (minutes)
Azimuth
Elevation
Range (km)
Doppler Factor

Next 0 passes for location: London (51.5072 / 0.1276)

No passes found over London.
FENGYUN 4C